[[{"header":{"parameterUnit":"m.s-1","parameterCategory":2,"la1":30.2991,"la2":30.254,"lo1":-89.0895,"lo2":-89.0444,"dy":0.0017,"dx":0.0017,"nx":28,"ny":28,"refTime":"2025-11-04T03:00:00:Z","depth":"0","parameterNumber":2,"parameterNumberName":"U-component_of_CURRENTS"},"data":[0,0,0,0,0,0,0,0,0,0,0,0,0,0,0,0,0,0,0,0,0,0,0,0,0,0,0,0,0,0,0,0,0,0,0,0,0,0,0,0,0,0,0,0,0,0,0,0,0,0,0,0,0,0,0,0,0,0,0.3291,0.3291,0,0.3295,0.3295,0.3295,0.3285,0.3285,0.3285,0.3284,0.3309,0.3309,0.331,0,0,0,0,0,0,0,0,0,0,0,0,0,0.3246,0.3247,0.3291,0.3291,0.3291,0.3295,0.3295,0.3295,0.3285,0.3285,0.3285,0.3284,0.3308,0.3309,0.331,0,0,0,0,0,0,0,0,0,0,0,0,0,0.3257,0.3247,0.3291,0.3288,0.3288,0.3295,0.3295,0.3295,0.3285,0.3285,0.3285,0.3284,0.3308,0.3309,0.331,0.332,0,0,0.3314,0.3314,0,0,0,0,0,0,0,0,0.3257,0.3259,0.3288,0.3289,0.3289,0.3291,0.3288,0.3305,0.3285,0.3284,0.3284,0.3284,0.3306,0.3308,0.3305,0.3322,0.3323,0.3314,0.3314,0.3315,0.3315,0,0,0,0,0,0,0,0.3256,0.3258,0.329,0.3289,0.3289,0.3278,0.328,0.3291,0.3294,0.3284,0.3284,0.3288,0.3306,0.3304,0.3306,0.3323,0.3314,0.3315,0.3315,0.3316,0.3418,0.3419,0,0,0,0,0,0,0.3262,0.3258,0.329,0.329,0.3275,0.3279,0.3281,0.3289,0.3294,0.3295,0.3288,0.3288,0.3302,0.3304,0.3307,0.3385,0.3315,0.3316,0.3317,0.3416,0.3418,0.342,0,0,0,0,0,0,0.3261,0.3265,0.329,0.3276,0.3278,0.3281,0.3289,0.3289,0.3291,0.3297,0.3298,0.3292,0.3302,0.3305,0.3329,0.3383,0.3316,0.3317,0.3413,0.3416,0.3419,0.3499,0,0,0,0,0,0,0.326,0.3265,0.3269,0.3276,0.328,0.3306,0.329,0.3289,0.3295,0.3294,0.3301,0.3303,0.3302,0.3328,0.333,0.3383,0.3318,0.3411,0.3415,0.3418,0.3493,0.3504,0.3513,0,0,0,0,0,0.3258,0.3267,0.3269,0.3273,0.3287,0.3308,0.3308,0.3307,0.3296,0.3306,0.331,0.3303,0.3355,0.333,0.3332,0.3387,0.3409,0.3413,0.3418,0.3489,0.3502,0.3513,0,0,0,0,0,0,0.3239,0.3267,0.327,0.3283,0.3301,0.3307,0.3314,0.3311,0.332,0.332,0.3316,0.3319,0.3368,0.3361,0.3333,0.3429,0.3386,0.3391,0.3439,0.3451,0.3461,0.3481,0.3319,0,0,0,0,0,0.3241,0.3261,0.3281,0.3292,0.3304,0.3309,0.3314,0.3319,0.3329,0.3332,0.3336,0.3353,0.3389,0.3403,0.3424,0.3465,0.3478,0.3506,0.3516,0.3524,0.3544,0.361,0.3628,0.3435,0.3435,0.3435,0,0,0.3233,0.3254,0.3261,0.329,0.3301,0.3335,0.3312,0.3332,0.3366,0.3335,0.3375,0.3384,0.3406,0.3461,0.3483,0.3461,0.3584,0.353,0.3537,0.3552,0.3617,0.3636,0.3652,0.3438,0.3438,0.3437,0,0,0.3241,0.3252,0.3277,0.3302,0.3334,0.3349,0.3359,0.3377,0.3392,0.3427,0.3429,0.3469,0.3496,0.3538,0.3561,0.3636,0.3633,0.3642,0.3711,0.3775,0.3792,0.3807,0.3839,0.3856,0.3648,0.3648,0.3649,0,0.323,0.3268,0.3285,0.3323,0.3349,0.3362,0.3399,0.3426,0.3449,0.3476,0.3452,0.3534,0.3544,0.3641,0.3671,0.3663,0.3682,0.3663,0.3789,0.3804,0.3818,0.3847,0.3865,0.3653,0.3652,0.3652,0.3651,0,0.3267,0.3298,0.3316,0.3378,0.3409,0.3442,0.3489,0.352,0.3534,0.3562,0.364,0.3658,0.3709,0.3728,0.3723,0.3839,0.3814,0.3792,0.3759,0.3842,0.3867,0.3884,0.3659,0.3658,0.3656,0.3655,0,0,0.3234,0.3325,0.3327,0.3365,0.3441,0.3466,0.3544,0.3615,0.3664,0.3703,0.3771,0.3845,0.3849,0.3877,0.3885,0.3944,0.4051,0.3914,0.3915,0.3945,0.4178,0.415,0.4164,0.4051,0.4055,0.4058,0.4152,0,0.3255,0.3323,0.3375,0.3446,0.3486,0.3544,0.3609,0.3678,0.3733,0.3802,0.3861,0.3923,0.3911,0.3934,0.4002,0.4039,0.4102,0.4027,0.4093,0.4095,0.4061,0.4186,0.4081,0.4156,0.4169,0.4172,0.4174,0,0.3272,0.3318,0.3381,0.348,0.3502,0.3546,0.3651,0.3716,0.3834,0.388,0.3971,0.4007,0.412,0.4076,0.4215,0.4165,0.4189,0.4209,0.4212,0.4175,0.4101,0.4077,0.4186,0.4094,0.42,0.4197,0.4196,0,0.3224,0.3325,0.3369,0.3402,0.3512,0.3549,0.3609,0.3724,0.3801,0.3929,0.3999,0.4116,0.4185,0.4249,0.4308,0.4266,0.4442,0.4379,0.4379,0.4375,0.4295,0.4278,0.4325,0.4486,0.4486,0.4485,0.4485,0,0.322,0.3258,0.3341,0.3361,0.3419,0.3508,0.3586,0.3672,0.3812,0.3905,0.4026,0.4123,0.4236,0.4343,0.4361,0.4444,0.4491,0.4431,0.4422,0.4317,0.4302,0.4223,0.4166,0.4489,0.4488,0.4487,0.4487,0,0.3161,0.3215,0.3269,0.3364,0.3392,0.3424,0.3562,0.3626,0.3774,0.3905,0.3954,0.4167,0.4301,0.4404,0.452,0.4522,0.4473,0.459,0.445,0.4424,0.4301,0.4253,0.4149,0.402,0.4598,0.4598,0.4598,0,0.3139,0.3158,0.3238,0.3258,0.3295,0.3363,0.3409,0.357,0.3653,0.3914,0.397,0.418,0.4302,0.4499,0.455,0.4617,0.4476,0.4541,0.4448,0.4325,0.4264,0.4082,0.3966,0.4363,0.4361,0.436,0.4359,0,0.3102,0.3121,0.3158,0.3192,0.3228,0.3281,0.3365,0.3438,0.3627,0.3753,0.3933,0.4064,0.4306,0.437,0.4509,0.4525,0.4343,0.4511,0.4435,0.4149,0.3904,0.3764,0.4246,0.4346,0.4347,0.4348,0.4349,0.4349,0.3067,0.3068,0.3105,0.3133,0.3164,0.3188,0.3196,0.3315,0.3426,0.3598,0.3795,0.3936,0.4173,0.4367,0.4363,0.4327,0.425,0.4223,0.4193,0.4033,0.3854,0.4304,0.436,0.4361,0.4362,0.4363,0.4364,0,0.3024,0.303,0.3053,0.3058,0.3039,0.3091,0.3154,0.3146,0.3209,0.3412,0.3554,0.3776,0.3922,0.4069,0.4173,0.4048,0.3849,0.3941,0.3668,0.3582,0.4052,0.3989,0.3906,0.3906,0.3906,0.3906,0.3906,0.3906,0.3004,0.2993,0.2994,0.2933,0.2925,0.2862,0.2864,0.288,0.2979,0.3088,0.32,0.3378,0.3738,0.4016,0.3975,0.3864,0.3537,0.3409,0.3346,0.3712,0.3734,0.3756,0.3685,0.3539,0.3539,0.2744,0.2739,0.2734]},{"header":{"parameterUnit":"m.s-1","parameterCategory":2,"la1":30.2991,"la2":30.254,"lo1":-89.0895,"lo2":-89.0444,"dy":0.0017,"dx":0.0017,"nx":28,"ny":28,"refTime":"2025-11-04T03:00:00:Z","depth":"0","parameterNumber":3,"parameterNumberName":"V-component_of_CURRENTS"},"data":[0,0,0,0,0,0,0,0,0,0,0,0,0,0,0,0,0,0,0,0,0,0,0,0,0,0,0,0,0,0,0,0,0,0,0,0,0,0,0,0,0,0,0,0,0,0,0,0,0,0,0,0,0,0,0,0,0,0,0.0156,0.0155,0,0.0044,0.0042,0.0041,-0.0032,-0.0033,-0.0033,-0.0033,-0.0153,-0.0156,-0.0159,0,0,0,0,0,0,0,0,0,0,0,0,0,0.0234,0.0234,0.0156,0.0155,0.0154,0.0044,0.0042,0.004,-0.0032,-0.0033,-0.0033,-0.0033,-0.0152,-0.0156,-0.0159,0,0,0,0,0,0,0,0,0,0,0,0,0,0.0168,0.0233,0.0156,0.0105,0.01,0.0044,0.0042,0.004,-0.0032,-0.0033,-0.0033,-0.0033,-0.0151,-0.0156,-0.016,-0.0177,0,0,-0.0173,-0.0175,0,0,0,0,0,0,0,0,0.0172,0.0165,0.0114,0.0109,0.0102,0.0021,0.0025,-0.0033,-0.0032,0.0016,-0.0033,-0.0034,-0.0095,-0.0104,-0.0126,-0.0183,-0.0188,-0.0174,-0.0176,-0.0178,-0.0179,0,0,0,0,0,0,0,0.0176,0.0169,0.011,0.0113,0.0106,0.0063,0.0053,0.0014,-0.0036,0.0012,0.0007,-0.0003,-0.0098,-0.0121,-0.0129,-0.019,-0.0173,-0.0177,-0.018,-0.0182,-0.0264,-0.0263,0,0,0,0,0,0,0.0198,0.0174,0.0114,0.0107,0.0138,0.0062,0.0051,0.0046,-0.0036,-0.0048,-0.0002,-0.0006,-0.0114,-0.0124,-0.0134,-0.0144,-0.0178,-0.0182,-0.0185,-0.0264,-0.0263,-0.0263,0,0,0,0,0,0,0.02,0.0194,0.0118,0.0138,0.0126,0.0062,0.0056,0.0044,0.0021,-0.0047,-0.006,-0.0012,-0.0115,-0.0127,-0.0163,-0.015,-0.0184,-0.0188,-0.0264,-0.0264,-0.0263,-0.0175,0,0,0,0,0,0,0.0203,0.0195,0.02,0.014,0.0126,0.0097,0.0056,0.0042,0.0017,0.0011,-0.0059,-0.0071,-0.0116,-0.0156,-0.0167,-0.0156,-0.0191,-0.0265,-0.0264,-0.0263,-0.0178,-0.0171,-0.0165,0,0,0,0,0,0.0206,0.0219,0.0201,0.0194,0.0134,0.0097,0.0086,0.0037,0.0017,0.0014,-0.0035,-0.0069,-0.0159,-0.0159,-0.0173,-0.0163,-0.0265,-0.0264,-0.0263,-0.0181,-0.0172,-0.0165,0,0,0,0,0,0,0.0255,0.0211,0.019,0.0189,0.0151,0.0086,0.008,0.0045,0.0003,-0.0001,-0.0067,-0.0082,-0.0109,-0.0147,-0.0146,-0.0184,-0.0217,-0.0218,-0.0149,-0.0142,-0.0135,-0.0103,-0.0195,0,0,0,0,0,0.027,0.0267,0.0216,0.0215,0.0202,0.0143,0.0122,0.0089,0.0043,0.0023,-0.0026,-0.0075,-0.0116,-0.0136,-0.018,-0.0199,-0.0228,-0.0201,-0.0194,-0.0188,-0.0171,-0.0209,-0.0204,-0.026,-0.026,-0.026,0,0,0.0287,0.0264,0.0261,0.0225,0.0193,0.0187,0.0129,0.0107,0.0101,0.0018,-0.0001,-0.0055,-0.0117,-0.0141,-0.0156,-0.017,-0.0187,-0.0187,-0.0181,-0.0167,-0.0208,-0.0202,-0.0197,-0.0259,-0.0259,-0.0259,0,0,0.0329,0.0304,0.0319,0.0295,0.0258,0.0222,0.0222,0.0164,0.0138,0.0108,0.005,0.0009,-0.0055,-0.0094,-0.0123,-0.0105,-0.0153,-0.0121,-0.0059,-0.0096,-0.0092,-0.0088,-0.0109,-0.0107,-0.0115,-0.0114,-0.0114,0,0.0353,0.0364,0.0317,0.0325,0.0319,0.0247,0.0265,0.0227,0.0164,0.0155,0.0118,0.0029,-0.003,-0.0054,-0.0054,-0.0088,-0.0112,-0.0083,-0.0086,-0.0083,-0.0081,-0.0103,-0.0103,-0.011,-0.011,-0.0111,-0.0111,0,0.0404,0.0412,0.0421,0.0412,0.0398,0.0399,0.0349,0.0331,0.029,0.025,0.0214,0.0127,0.0081,0.0048,-0.0002,-0.0012,-0.0034,-0.0075,-0.0101,-0.007,-0.0095,-0.0097,-0.0104,-0.0105,-0.0107,-0.0108,0,0,0.0458,0.046,0.0462,0.0483,0.0447,0.0446,0.0441,0.0421,0.0435,0.0354,0.0365,0.0266,0.0217,0.0182,0.0111,0.0069,0.0052,0.0011,0.0007,0.0002,-0.0015,-0.0034,-0.0038,0.001,0.001,0.001,-0.0035,0,0.0514,0.0565,0.0542,0.059,0.0615,0.0564,0.057,0.0541,0.0505,0.0495,0.0399,0.0371,0.0269,0.0249,0.0192,0.0093,0.0052,0.007,-0.0053,-0.0056,-0.0069,-0.004,-0.0039,-0.0079,-0.0037,-0.0037,-0.0037,0,0.0573,0.0602,0.0662,0.0697,0.0704,0.0714,0.073,0.0725,0.0685,0.0662,0.0611,0.0533,0.0462,0.0367,0.0221,0.0239,0.0125,0.0037,0.0032,-0.0015,-0.0078,-0.0107,-0.0084,-0.0293,-0.004,-0.004,-0.004,0,0.0645,0.0689,0.0747,0.0754,0.0772,0.0791,0.0796,0.0774,0.0808,0.0767,0.0795,0.0676,0.0644,0.0481,0.0287,0.0257,0.0131,0.0065,-0.0059,-0.0061,-0.0098,-0.0103,-0.0281,-0.0037,-0.0037,-0.0037,-0.0037,0,0.0715,0.0761,0.0786,0.0815,0.0895,0.0871,0.0949,0.0933,0.0952,0.1025,0.0888,0.0922,0.067,0.056,0.0355,0.0162,0.0181,-0.0032,-0.0071,-0.0066,-0.0068,-0.0284,-0.0409,-0.0039,-0.0038,-0.0038,-0.0038,0,0.0779,0.079,0.0866,0.0908,0.0929,0.0982,0.1063,0.1125,0.1121,0.1216,0.1215,0.1123,0.0973,0.0718,0.0467,0.0277,-0.0057,-0.0012,0.002,-0.0016,-0.0333,-0.0452,-0.0677,-0.0768,-0.0147,-0.0148,-0.0149,0,0.0818,0.0864,0.0944,0.1004,0.1025,0.1108,0.1174,0.1201,0.1288,0.1353,0.1418,0.1303,0.1259,0.0887,0.05,0.0154,-0.0074,-0.0069,-0.014,-0.0336,-0.0499,-0.0598,-0.0665,-0.0153,-0.0153,-0.0154,-0.0154,0,0.0908,0.093,0.0996,0.1119,0.1201,0.1309,0.141,0.1513,0.1571,0.166,0.1754,0.1723,0.1361,0.101,0.0516,0.0252,-0.0224,-0.0089,-0.0309,-0.0524,-0.0627,-0.0737,-0.0131,-0.0158,-0.0158,-0.0158,-0.0157,-0.0157,0.0982,0.1049,0.1141,0.1259,0.136,0.1502,0.1616,0.175,0.1911,0.2065,0.2016,0.2014,0.1479,0.0801,0.0421,-0.0266,-0.0277,-0.0466,-0.0592,-0.0672,-0.0773,-0.0163,-0.023,-0.023,-0.023,-0.023,-0.023,0,0.1084,0.1163,0.1284,0.1424,0.1549,0.1578,0.1775,0.1908,0.212,0.2237,0.232,0.204,0.1399,0.0723,-0.0196,-0.0664,-0.0854,-0.0932,-0.1087,-0.113,-0.0598,-0.0611,-0.0742,-0.0742,-0.0742,-0.0742,-0.0742,-0.0741,0.1147,0.128,0.134,0.1566,0.1663,0.1841,0.1961,0.2159,0.2288,0.2434,0.2417,0.2361,0.1819,0.0186,-0.0904,-0.1149,-0.1493,-0.1582,-0.1734,-0.1393,-0.1359,-0.1327,-0.1369,-0.1658,-0.1659,-0.2204,-0.221,-0.2214]}],[{"header":{"parameterUnit":"m.s-1","parameterCategory":2,"la1":30.2991,"la2":30.254,"lo1":-89.0895,"lo2":-89.0444,"dy":0.0017,"dx":0.0017,"nx":28,"ny":28,"refTime":"2025-11-04T03:00:00:Z","depth":"2","parameterNumber":2,"parameterNumberName":"U-component_of_CURRENTS"},"data":[0,0,0,0,0,0,0,0,0,0,0,0,0,0,0,0,0,0,0,0,0,0,0,0,0,0,0,0,0,0,0,0,0,0,0,0,0,0,0,0,0,0,0,0,0,0,0,0,0,0,0,0,0,0,0,0,0,0,0.275,0.2751,0,0.2803,0.2803,0.2804,0.2818,0.2818,0.2818,0.2818,0.2853,0.2854,0.2855,0,0,0,0,0,0,0,0,0,0,0,0,0,0.2662,0.2664,0.275,0.2751,0.2752,0.2803,0.2803,0.2804,0.2818,0.2818,0.2818,0.2818,0.2853,0.2854,0.2855,0,0,0,0,0,0,0,0,0,0,0,0,0,0.2704,0.2664,0.275,0.2768,0.277,0.2803,0.2803,0.2804,0.2818,0.2818,0.2818,0.2818,0.2852,0.2854,0.2855,0.2865,0,0,0.286,0.286,0,0,0,0,0,0,0,0,0.2701,0.2706,0.2764,0.2766,0.2769,0.2806,0.2785,0.2825,0.2818,0.2797,0.2818,0.2818,0.2838,0.284,0.2847,0.2867,0.2869,0.286,0.2861,0.2861,0.2862,0,0,0,0,0,0,0,0.2698,0.2704,0.2768,0.2765,0.2768,0.2773,0.2778,0.2793,0.2814,0.2799,0.2801,0.2811,0.2838,0.2845,0.2848,0.2869,0.286,0.2861,0.2862,0.2862,0.2952,0.2954,0,0,0,0,0,0,0.2698,0.2702,0.2767,0.277,0.2737,0.2775,0.2781,0.2792,0.2815,0.2819,0.2811,0.2811,0.2843,0.2846,0.2849,0.2919,0.2861,0.2863,0.2863,0.2951,0.2953,0.2954,0,0,0,0,0,0,0.2696,0.2703,0.2765,0.2739,0.2748,0.2777,0.2789,0.2793,0.2812,0.2825,0.2828,0.2827,0.2843,0.2847,0.2879,0.2918,0.2863,0.2865,0.2949,0.2951,0.2953,0.3023,0,0,0,0,0,0,0.2693,0.2702,0.2713,0.2739,0.2749,0.2798,0.279,0.2794,0.2819,0.2821,0.284,0.2842,0.2843,0.2877,0.288,0.2919,0.2866,0.2947,0.295,0.2953,0.3019,0.3028,0.3035,0,0,0,0,0,0.269,0.2704,0.2713,0.2722,0.2763,0.2799,0.2805,0.2822,0.282,0.2837,0.285,0.2842,0.2897,0.2879,0.2883,0.2923,0.2946,0.2949,0.2952,0.3015,0.3026,0.3035,0,0,0,0,0,0,0.2671,0.2708,0.2719,0.2744,0.2776,0.2803,0.2822,0.283,0.2853,0.2857,0.2859,0.2864,0.2909,0.2903,0.2883,0.2957,0.2921,0.2926,0.2968,0.2978,0.2986,0.2996,0.2867,0,0,0,0,0,0.2673,0.2695,0.2732,0.2754,0.2773,0.2799,0.2816,0.2831,0.2854,0.2865,0.2878,0.2896,0.2925,0.294,0.2959,0.2996,0.3008,0.3024,0.3032,0.3039,0.3051,0.3106,0.312,0.2965,0.2965,0.2965,0,0,0.2669,0.2696,0.2707,0.2752,0.2778,0.2813,0.2809,0.2846,0.2878,0.2865,0.291,0.2925,0.2941,0.2988,0.3008,0.2989,0.3091,0.3043,0.3049,0.3057,0.3111,0.3126,0.3139,0.2968,0.2967,0.2967,0,0,0.2677,0.2703,0.2726,0.2759,0.2808,0.2829,0.2843,0.2881,0.2905,0.2948,0.2954,0.2993,0.3023,0.3052,0.3068,0.313,0.3132,0.3135,0.3186,0.324,0.3253,0.3265,0.3305,0.332,0.3139,0.3139,0.3139,0,0.2671,0.2709,0.2738,0.2775,0.2807,0.2839,0.2875,0.2908,0.2951,0.298,0.2971,0.3051,0.3059,0.3132,0.3155,0.3151,0.3175,0.3149,0.3252,0.3263,0.3274,0.3312,0.3328,0.3142,0.3142,0.3142,0.3141,0,0.2699,0.2734,0.2755,0.2812,0.2849,0.2888,0.294,0.298,0.3008,0.3042,0.3119,0.3142,0.319,0.3203,0.3198,0.3287,0.3277,0.3256,0.3228,0.3295,0.3329,0.3345,0.3148,0.3147,0.3145,0.3144,0,0,0.2666,0.2755,0.2761,0.2795,0.2875,0.2903,0.2974,0.3044,0.3094,0.3146,0.3215,0.3274,0.3293,0.3312,0.3323,0.3368,0.3463,0.3349,0.335,0.339,0.3583,0.3542,0.3554,0.3465,0.3468,0.347,0.3578,0,0.2679,0.2741,0.279,0.2854,0.2892,0.2956,0.3018,0.3088,0.3148,0.3222,0.328,0.3345,0.3335,0.3366,0.3417,0.3455,0.3506,0.3436,0.3511,0.3513,0.3471,0.3571,0.3304,0.3376,0.3592,0.3595,0.3596,0,0.2687,0.2731,0.279,0.2881,0.2904,0.2948,0.3053,0.3113,0.3231,0.3285,0.3373,0.3416,0.3514,0.348,0.3601,0.356,0.3583,0.3602,0.3606,0.3555,0.3501,0.3344,0.3394,0.3621,0.3619,0.3617,0.3616,0,0.2638,0.273,0.2774,0.2805,0.2911,0.2953,0.3013,0.3127,0.3204,0.3329,0.3403,0.3509,0.3584,0.3636,0.3693,0.3656,0.3813,0.376,0.3747,0.3743,0.3524,0.3496,0.3844,0.3844,0.3844,0.3844,0.3844,0,0.2628,0.2661,0.2753,0.2774,0.2836,0.2922,0.3006,0.3087,0.3229,0.3315,0.343,0.3524,0.363,0.3729,0.3743,0.3812,0.3861,0.3786,0.3783,0.354,0.3515,0.3723,0.3707,0.3848,0.3847,0.3846,0.3845,0,0.2565,0.2626,0.2678,0.278,0.2812,0.2853,0.2999,0.3063,0.3209,0.3331,0.3381,0.358,0.3704,0.3798,0.39,0.3887,0.3935,0.3937,0.3647,0.3608,0.3811,0.3798,0.3935,0.3935,0.3935,0.3934,0.3934,0,0.2535,0.2559,0.2656,0.2684,0.2728,0.2809,0.2866,0.3027,0.3104,0.3344,0.3394,0.3594,0.3697,0.3873,0.3888,0.3938,0.3969,0.3704,0.3583,0.3844,0.3828,0.3815,0.3802,0.3316,0.3311,0.3306,0.3303,0,0.2482,0.2519,0.2556,0.2617,0.267,0.2735,0.2829,0.2896,0.3073,0.3195,0.3356,0.3471,0.367,0.3635,0.3738,0.3714,0.3674,0.3621,0.3989,0.334,0.3271,0.3251,0.3257,0.3265,0.3269,0.3272,0.3274,0.3275,0.2434,0.2447,0.2501,0.2545,0.2597,0.2636,0.2649,0.2763,0.287,0.3006,0.3191,0.3274,0.3386,0.3419,0.3351,0.3309,0.3542,0.3378,0.3386,0.34,0.3316,0.3251,0.3224,0.3228,0.3231,0.3233,0.3235,0,0.2382,0.2404,0.2434,0.2468,0.2462,0.2541,0.26,0.2585,0.2637,0.2808,0.2923,0.2791,0.2836,0.2926,0.2826,0.2865,0.2783,0.2737,0.2595,0.2639,0.2677,0.2548,0.2257,0.2253,0.2249,0.2246,0,0,0.236,0.235,0.2358,0.2315,0.2342,0.2299,0.2303,0.2306,0.2379,0.2403,0.2448,0.271,0.2867,0.251,0.2503,0.2355,0.2457,0.2269,0.3071,0.295,0.2981,0.3087,0.2947,0,0,0,0,0]},{"header":{"parameterUnit":"m.s-1","parameterCategory":2,"la1":30.2991,"la2":30.254,"lo1":-89.0895,"lo2":-89.0444,"dy":0.0017,"dx":0.0017,"nx":28,"ny":28,"refTime":"2025-11-04T03:00:00:Z","depth":"2","parameterNumber":3,"parameterNumberName":"V-component_of_CURRENTS"},"data":[0,0,0,0,0,0,0,0,0,0,0,0,0,0,0,0,0,0,0,0,0,0,0,0,0,0,0,0,0,0,0,0,0,0,0,0,0,0,0,0,0,0,0,0,0,0,0,0,0,0,0,0,0,0,0,0,0,0,0.0003,0.0002,0,-0.0088,-0.0089,-0.0091,-0.0152,-0.0152,-0.0152,-0.0152,-0.0259,-0.0261,-0.0264,0,0,0,0,0,0,0,0,0,0,0,0,0,0.0063,0.0062,0.0003,0.0002,0.0001,-0.0088,-0.009,-0.0091,-0.0152,-0.0152,-0.0152,-0.0153,-0.0258,-0.0261,-0.0264,0,0,0,0,0,0,0,0,0,0,0,0,0,0.001,0.0062,0.0003,-0.0039,-0.0044,-0.0088,-0.009,-0.0091,-0.0151,-0.0152,-0.0152,-0.0153,-0.0257,-0.0261,-0.0265,-0.028,0,0,-0.0276,-0.0278,0,0,0,0,0,0,0,0,0.0013,0.0007,-0.0032,-0.0036,-0.0041,-0.0108,-0.0107,-0.0155,-0.0151,-0.0112,-0.0152,-0.0153,-0.0208,-0.0216,-0.0235,-0.0285,-0.029,-0.0277,-0.0279,-0.0281,-0.0282,0,0,0,0,0,0,0,0.0017,0.001,-0.0035,-0.0033,-0.0039,-0.0074,-0.0082,-0.0117,-0.0158,-0.0116,-0.012,-0.0127,-0.0211,-0.0231,-0.0237,-0.0291,-0.0277,-0.028,-0.0282,-0.0284,-0.0353,-0.0353,0,0,0,0,0,0,0.0035,0.0014,-0.0032,-0.0037,-0.0013,-0.0074,-0.0083,-0.0087,-0.0158,-0.0168,-0.0127,-0.013,-0.0224,-0.0233,-0.0241,-0.0249,-0.0281,-0.0284,-0.0287,-0.0354,-0.0353,-0.0353,0,0,0,0,0,0,0.0036,0.0032,-0.0028,-0.0013,-0.0023,-0.0074,-0.0079,-0.0089,-0.0107,-0.0166,-0.0177,-0.0134,-0.0225,-0.0236,-0.0265,-0.0254,-0.0286,-0.029,-0.0354,-0.0353,-0.0353,-0.0274,0,0,0,0,0,0,0.0039,0.0033,0.0037,-0.0011,-0.0023,-0.0045,-0.0079,-0.009,-0.011,-0.0115,-0.0176,-0.0186,-0.0226,-0.0259,-0.0269,-0.026,-0.0293,-0.0355,-0.0354,-0.0353,-0.0277,-0.0271,-0.0265,0,0,0,0,0,0.0041,0.0052,0.0038,0.0032,-0.0016,-0.0044,-0.0053,-0.0093,-0.011,-0.0112,-0.0152,-0.0184,-0.0261,-0.0262,-0.0274,-0.0266,-0.0355,-0.0354,-0.0353,-0.028,-0.0272,-0.0265,0,0,0,0,0,0,0.0079,0.0045,0.0029,0.0028,-0.0001,-0.0054,-0.0058,-0.0086,-0.0121,-0.0123,-0.0181,-0.0194,-0.0216,-0.025,-0.025,-0.0283,-0.0312,-0.0314,-0.0253,-0.0246,-0.024,-0.0218,-0.0296,0,0,0,0,0,0.0091,0.009,0.005,0.0049,0.004,-0.0007,-0.0024,-0.005,-0.0087,-0.0103,-0.0145,-0.0186,-0.0222,-0.024,-0.0277,-0.0294,-0.0327,-0.0296,-0.029,-0.0284,-0.0274,-0.0316,-0.0313,-0.0349,-0.0349,-0.0349,0,0,0.0104,0.0087,0.0085,0.0057,0.0032,0.0029,-0.0018,-0.0034,-0.0038,-0.0108,-0.0123,-0.0168,-0.0222,-0.0242,-0.0254,-0.0268,-0.029,-0.0283,-0.0278,-0.027,-0.0315,-0.0311,-0.0308,-0.0348,-0.0348,-0.0348,0,0,0.0138,0.0119,0.0131,0.0114,0.0086,0.0059,0.006,0.0015,-0.0006,-0.0029,-0.0078,-0.0112,-0.0166,-0.0201,-0.0226,-0.0208,-0.0258,-0.022,-0.0171,-0.0212,-0.0209,-0.0207,-0.0238,-0.024,-0.0215,-0.0215,-0.0215,0,0.0156,0.0168,0.013,0.0139,0.0136,0.008,0.0097,0.0066,0.0017,0.0008,-0.002,-0.0096,-0.0145,-0.0168,-0.0165,-0.0193,-0.0222,-0.0193,-0.0203,-0.0202,-0.0201,-0.0234,-0.0237,-0.0211,-0.0212,-0.0212,-0.0212,0,0.0198,0.0208,0.0216,0.0213,0.0203,0.0207,0.0168,0.0155,0.0123,0.0089,0.0057,-0.0014,-0.0056,-0.0081,-0.0121,-0.0136,-0.016,-0.0192,-0.0218,-0.0193,-0.0229,-0.0233,-0.0206,-0.0207,-0.0208,-0.0209,0,0,0.0239,0.0247,0.025,0.0269,0.0245,0.0246,0.0243,0.0227,0.0235,0.0172,0.0174,0.0096,0.0055,0.0024,-0.0034,-0.0075,-0.0102,-0.0124,-0.0128,-0.0148,-0.0185,-0.0208,-0.0215,-0.0137,-0.0137,-0.0137,-0.0209,0,0.0285,0.0332,0.0317,0.036,0.0384,0.0344,0.0351,0.0326,0.0294,0.028,0.0198,0.0174,0.0095,0.008,0.0025,-0.0067,-0.011,-0.0079,-0.0213,-0.0216,-0.0235,-0.022,-0.0192,-0.0254,-0.0214,-0.0215,-0.0215,0,0.0333,0.0362,0.0417,0.045,0.0456,0.0467,0.0479,0.0475,0.0433,0.0409,0.0361,0.0298,0.0231,0.016,0.0017,0.0041,-0.0061,-0.0141,-0.0146,-0.0197,-0.0247,-0.0276,-0.0264,-0.0223,-0.0222,-0.0222,-0.0221,0,0.039,0.0433,0.0486,0.0494,0.0515,0.0531,0.0535,0.0513,0.0536,0.0491,0.0504,0.04,0.0366,0.0222,0.0053,0.0036,-0.0106,-0.0152,-0.0269,-0.0272,-0.0288,-0.0292,-0.0253,-0.0253,-0.0252,-0.0252,-0.0252,0,0.0447,0.0488,0.0517,0.0545,0.0613,0.0595,0.0656,0.0639,0.0645,0.0686,0.0576,0.059,0.038,0.0272,0.0097,-0.009,-0.0075,-0.0253,-0.0291,-0.026,-0.026,-0.0267,-0.0268,-0.0255,-0.0254,-0.0254,-0.0253,0,0.0494,0.0512,0.0579,0.0622,0.0641,0.0684,0.0749,0.0794,0.078,0.083,0.0827,0.0741,0.0598,0.0382,0.0155,-0.0013,-0.0204,-0.0277,-0.0221,-0.0251,-0.0354,-0.035,-0.0412,-0.0413,-0.0414,-0.0415,-0.0416,0,0.0521,0.0561,0.0641,0.0691,0.0712,0.078,0.0835,0.0855,0.0916,0.0928,0.0967,0.0857,0.0797,0.046,0.0143,-0.0159,-0.0201,-0.0334,-0.0371,-0.0339,-0.037,-0.0364,-0.0358,-0.0361,-0.0362,-0.0362,-0.0362,0,0.0574,0.0601,0.0658,0.0766,0.0838,0.0932,0.101,0.1088,0.1115,0.1161,0.1196,0.1151,0.0837,0.0541,0.0125,-0.0084,-0.0287,-0.0349,-0.033,-0.0323,-0.0297,-0.0326,-0.0321,-0.0364,-0.0364,-0.0364,-0.0364,-0.0364,0.0609,0.0665,0.0745,0.0847,0.094,0.106,0.1147,0.1243,0.135,0.1421,0.1373,0.1318,0.0969,0.0454,0.0082,-0.0304,-0.0295,-0.0432,-0.0429,-0.0426,-0.0405,-0.0382,-0.0461,-0.0461,-0.0461,-0.0462,-0.0462,0,0.0653,0.0722,0.0821,0.0943,0.105,0.1098,0.1252,0.1338,0.1469,0.1544,0.157,0.1258,0.0921,0.0526,-0.005,-0.0399,-0.0424,-0.0502,-0.0457,-0.0452,-0.0448,-0.0427,-0.0491,-0.0492,-0.0493,-0.0493,0,0,0.0679,0.0774,0.0829,0.1005,0.1103,0.1251,0.1347,0.1474,0.1564,0.1635,0.1623,0.1559,0.1066,0.0652,0.017,-0.0159,-0.0222,-0.0222,-0.0163,-0.0049,-0.0041,-0.0375,-0.0334,0,0,0,0,0]}],[{"header":{"parameterUnit":"m.s-1","parameterCategory":2,"la1":30.2991,"la2":30.254,"lo1":-89.0895,"lo2":-89.0444,"dy":0.0017,"dx":0.0017,"nx":28,"ny":28,"refTime":"2025-11-04T03:00:00:Z","depth":"4","parameterNumber":2,"parameterNumberName":"U-component_of_CURRENTS"},"data":[0,0,0,0,0,0,0,0,0,0,0,0,0,0,0,0,0,0,0,0,0,0,0,0,0,0,0,0,0,0,0,0,0,0,0,0,0,0,0,0,0,0,0,0,0,0,0,0,0,0,0,0,0,0,0,0,0,0,0.1772,0.1774,0,0.1875,0.1876,0.1877,0.1952,0.1953,0.1954,0.1954,0.2049,0.205,0.2052,0,0,0,0,0,0,0,0,0,0,0,0,0,0.1649,0.1651,0.1772,0.1774,0.1775,0.1875,0.1876,0.1878,0.1952,0.1953,0.1954,0.1955,0.2048,0.205,0.2052,0,0,0,0,0,0,0,0,0,0,0,0,0,0.172,0.1651,0.1772,0.1826,0.1832,0.1875,0.1876,0.1878,0.1952,0.1953,0.1954,0.1955,0.2047,0.205,0.2053,0.2045,0,0,0.2061,0.2062,0,0,0,0,0,0,0,0,0.1716,0.1725,0.1816,0.1822,0.1829,0.1904,0.1868,0.1934,0.1951,0.1904,0.1954,0.1956,0.2,0.2006,0.202,0.2049,0.2053,0.2061,0.2063,0.2064,0.2064,0,0,0,0,0,0,0,0.1711,0.1721,0.1811,0.1818,0.1826,0.1848,0.1859,0.1881,0.1942,0.1908,0.1914,0.1929,0.2003,0.2018,0.2023,0.2055,0.2061,0.2063,0.2065,0.2066,0.2195,0.2197,0,0,0,0,0,0,0.1701,0.1716,0.1808,0.1814,0.1777,0.1849,0.1862,0.1877,0.1942,0.1954,0.1927,0.1932,0.2013,0.202,0.2027,0.2126,0.2064,0.2066,0.2068,0.2193,0.2195,0.2197,0,0,0,0,0,0,0.1698,0.1708,0.1804,0.1769,0.1783,0.185,0.1867,0.1878,0.1934,0.1957,0.1969,0.1976,0.2014,0.2023,0.2086,0.2126,0.2067,0.207,0.2191,0.2194,0.2196,0.2256,0,0,0,0,0,0,0.1694,0.1706,0.1732,0.1768,0.1785,0.1856,0.1866,0.188,0.1939,0.1947,0.2002,0.201,0.2016,0.2082,0.2089,0.2128,0.2072,0.2189,0.2192,0.2196,0.2252,0.2261,0.2268,0,0,0,0,0,0.1689,0.1713,0.1733,0.1745,0.1812,0.1857,0.1868,0.1918,0.1941,0.1971,0.2013,0.201,0.2108,0.2086,0.2093,0.2135,0.2187,0.2191,0.2195,0.2248,0.2259,0.2268,0,0,0,0,0,0,0.1677,0.1724,0.1746,0.1786,0.1832,0.1871,0.1911,0.1939,0.1996,0.2016,0.2033,0.2044,0.2115,0.2116,0.209,0.2182,0.2147,0.2153,0.2185,0.2195,0.2203,0.2202,0.2074,0,0,0,0,0,0.1684,0.1718,0.1762,0.18,0.1825,0.1875,0.1907,0.1941,0.1986,0.2015,0.2053,0.2093,0.2129,0.2157,0.2187,0.2236,0.2244,0.2268,0.2276,0.2283,0.2288,0.2335,0.2348,0.2211,0.2211,0.2211,0,0,0.1689,0.1723,0.1743,0.1801,0.1842,0.1883,0.1899,0.196,0.2003,0.2014,0.2096,0.2127,0.215,0.221,0.224,0.2221,0.2328,0.2288,0.2293,0.2295,0.2341,0.2354,0.2366,0.2214,0.2213,0.2213,0,0,0.1704,0.175,0.1779,0.182,0.1889,0.1918,0.1943,0.2006,0.205,0.2119,0.2141,0.2198,0.2256,0.2281,0.2297,0.2367,0.2371,0.2385,0.2426,0.2473,0.2484,0.2494,0.2529,0.2542,0.2387,0.2387,0.2387,0,0.1713,0.1753,0.1797,0.1836,0.1876,0.1936,0.1977,0.2025,0.2104,0.2143,0.2157,0.2266,0.2286,0.2352,0.238,0.2386,0.2412,0.2385,0.2483,0.2493,0.2502,0.2535,0.2549,0.2391,0.239,0.239,0.239,0,0.1737,0.1786,0.1811,0.1877,0.1925,0.1976,0.2039,0.2103,0.2162,0.2206,0.2304,0.2342,0.2405,0.2423,0.2425,0.2507,0.2505,0.2488,0.2455,0.252,0.2551,0.2563,0.2396,0.2394,0.2393,0.2393,0,0,0.1708,0.1808,0.182,0.1861,0.1955,0.1992,0.2074,0.2155,0.2217,0.23,0.2379,0.2449,0.2485,0.2506,0.2526,0.2568,0.2656,0.2565,0.2566,0.2595,0.2767,0.2607,0.2605,0.2666,0.2669,0.267,0.2765,0,0.1718,0.179,0.184,0.1918,0.1962,0.2043,0.2108,0.2194,0.2274,0.2366,0.2431,0.2514,0.2512,0.2561,0.2604,0.2651,0.2693,0.2632,0.2705,0.2706,0.2552,0.2615,0.2678,0.2774,0.2777,0.2779,0.278,0,0.1716,0.177,0.1843,0.1945,0.1973,0.2031,0.2154,0.2223,0.2352,0.242,0.2516,0.2575,0.2672,0.2652,0.2764,0.2734,0.2759,0.278,0.2784,0.2619,0.2568,0.2695,0.2803,0.2801,0.28,0.2798,0.2797,0,0.1663,0.1768,0.1828,0.1865,0.1987,0.2045,0.212,0.2246,0.2325,0.2469,0.2551,0.2654,0.2741,0.279,0.2851,0.2825,0.2959,0.2919,0.2796,0.2785,0.2874,0.2862,0.2988,0.2988,0.2987,0.2987,0.2987,0,0.1634,0.1686,0.1816,0.1848,0.1931,0.2028,0.2131,0.2221,0.2369,0.2455,0.2582,0.2664,0.2786,0.2876,0.2892,0.2888,0.2996,0.2812,0.28,0.2898,0.2888,0.2884,0.287,0.2991,0.299,0.2989,0.2989,0,0.1556,0.1643,0.1719,0.1857,0.1907,0.1968,0.2139,0.2207,0.2363,0.2486,0.2545,0.2721,0.2822,0.2917,0.301,0.2935,0.2945,0.2914,0.3033,0.3024,0.2728,0.2717,0.277,0.2766,0.2762,0.2758,0.2755,0,0.1516,0.155,0.1706,0.1757,0.1826,0.1939,0.2011,0.2184,0.2257,0.2488,0.2528,0.2709,0.2796,0.2809,0.2906,0.2932,0.2897,0.2882,0.2776,0.2724,0.2708,0.2703,0.2698,0.2749,0.2748,0.2746,0.2745,0,0.1436,0.1509,0.1573,0.1679,0.1766,0.1854,0.1973,0.2018,0.2202,0.2373,0.2456,0.2524,0.2638,0.2701,0.2758,0.2762,0.2875,0.2838,0.2845,0.2745,0.2698,0.2685,0.2685,0.2731,0.2733,0.2735,0.2735,0,0.1379,0.1402,0.1499,0.1577,0.1682,0.1731,0.1813,0.19,0.2001,0.2242,0.226,0.2442,0.2603,0.2615,0.2658,0.2664,0.2611,0.251,0.2533,0.255,0.2433,0.2339,0.2259,0,0,0,0,0,0.1311,0.1324,0.1389,0.1465,0.1562,0.1626,0.1767,0.1851,0.2026,0.2028,0.2142,0.2228,0.231,0.2408,0.237,0.2561,0.2621,0.2504,0.2515,0.2652,0.2669,0.2551,0,0,0,0,0,0,0.1266,0.1318,0.1343,0.1354,0.1384,0.1475,0.1558,0.1681,0.1692,0.188,0.194,0.2088,0.2205,0.2307,0.2325,0.2354,0.2314,0.2621,0.2616,0.2643,0.2658,0.2671,0.2556,0,0,0,0,0]},{"header":{"parameterUnit":"m.s-1","parameterCategory":2,"la1":30.2991,"la2":30.254,"lo1":-89.0895,"lo2":-89.0444,"dy":0.0017,"dx":0.0017,"nx":28,"ny":28,"refTime":"2025-11-04T03:00:00:Z","depth":"4","parameterNumber":3,"parameterNumberName":"V-component_of_CURRENTS"},"data":[0,0,0,0,0,0,0,0,0,0,0,0,0,0,0,0,0,0,0,0,0,0,0,0,0,0,0,0,0,0,0,0,0,0,0,0,0,0,0,0,0,0,0,0,0,0,0,0,0,0,0,0,0,0,0,0,0,0,0.0013,0.0012,0,-0.0053,-0.0054,-0.0055,-0.01,-0.0101,-0.0101,-0.0101,-0.0183,-0.0185,-0.0187,0,0,0,0,0,0,0,0,0,0,0,0,0,0.0056,0.0055,0.0013,0.0012,0.0012,-0.0053,-0.0054,-0.0055,-0.01,-0.0101,-0.0101,-0.0101,-0.0182,-0.0184,-0.0187,0,0,0,0,0,0,0,0,0,0,0,0,0,0.0017,0.0055,0.0013,-0.0018,-0.0021,-0.0053,-0.0054,-0.0055,-0.01,-0.0101,-0.0101,-0.0101,-0.0181,-0.0184,-0.0187,-0.0199,0,0,-0.0196,-0.0198,0,0,0,0,0,0,0,0,0.0019,0.0015,-0.0012,-0.0016,-0.0019,-0.0068,-0.0069,-0.0104,-0.01,-0.0072,-0.0101,-0.0101,-0.0145,-0.0151,-0.0164,-0.0203,-0.0206,-0.0197,-0.0198,-0.02,-0.02,0,0,0,0,0,0,0,0.0022,0.0018,-0.0014,-0.0013,-0.0017,-0.0044,-0.0049,-0.0076,-0.0107,-0.0074,-0.0077,-0.0082,-0.0147,-0.0161,-0.0166,-0.0208,-0.0196,-0.0199,-0.0201,-0.0202,-0.0255,-0.0255,0,0,0,0,0,0,0.0036,0.0021,-0.0012,-0.0016,0.0001,-0.0044,-0.005,-0.0053,-0.0106,-0.0114,-0.0082,-0.0084,-0.0156,-0.0163,-0.0169,-0.0173,-0.02,-0.0202,-0.0204,-0.0255,-0.0255,-0.0255,0,0,0,0,0,0,0.0037,0.0033,-0.001,0.0001,-0.0006,-0.0044,-0.0047,-0.0054,-0.0068,-0.0112,-0.0121,-0.0089,-0.0156,-0.0165,-0.0188,-0.0177,-0.0204,-0.0206,-0.0256,-0.0255,-0.0255,-0.019,0,0,0,0,0,0,0.0038,0.0034,0.0037,0.0003,-0.0006,-0.0022,-0.0047,-0.0055,-0.007,-0.0074,-0.012,-0.0128,-0.0157,-0.0183,-0.019,-0.0182,-0.0209,-0.0256,-0.0256,-0.0255,-0.0193,-0.0187,-0.0183,0,0,0,0,0,0.004,0.0047,0.0037,0.0033,-0.0001,-0.0021,-0.0028,-0.0057,-0.007,-0.0072,-0.0102,-0.0127,-0.0184,-0.0185,-0.0194,-0.0186,-0.0257,-0.0256,-0.0255,-0.0195,-0.0188,-0.0183,0,0,0,0,0,0,0.0064,0.0042,0.0031,0.0029,0.0009,-0.0028,-0.0032,-0.0053,-0.0079,-0.0082,-0.0124,-0.0134,-0.0151,-0.0177,-0.0177,-0.0199,-0.0224,-0.0225,-0.0175,-0.0169,-0.0164,-0.015,-0.0211,0,0,0,0,0,0.0072,0.0072,0.0045,0.0044,0.0038,0.0004,-0.0008,-0.0027,-0.0054,-0.0066,-0.0098,-0.0129,-0.0154,-0.0168,-0.0196,-0.0207,-0.0241,-0.0208,-0.0203,-0.0199,-0.0193,-0.0235,-0.0234,-0.0252,-0.0252,-0.0252,0,0,0.0081,0.0069,0.0068,0.005,0.0032,0.0032,-0.0004,-0.0016,-0.0017,-0.0071,-0.0081,-0.0115,-0.0154,-0.0167,-0.0177,-0.0188,-0.0211,-0.0198,-0.0194,-0.019,-0.0234,-0.0233,-0.0231,-0.0251,-0.0251,-0.0251,0,0,0.0104,0.009,0.01,0.0089,0.007,0.0052,0.0052,0.002,0.0005,-0.001,-0.0046,-0.0072,-0.0111,-0.0136,-0.0153,-0.0138,-0.0185,-0.0148,-0.011,-0.015,-0.0149,-0.0148,-0.0186,-0.019,-0.0143,-0.0143,-0.0143,0,0.0115,0.0125,0.0099,0.0108,0.0107,0.0067,0.0081,0.006,0.0025,0.0017,-0.0003,-0.006,-0.0095,-0.0111,-0.0106,-0.0127,-0.0158,-0.0127,-0.0143,-0.0144,-0.0144,-0.0183,-0.0188,-0.014,-0.014,-0.014,-0.0141,0,0.0146,0.0155,0.0161,0.0163,0.0158,0.0162,0.0137,0.0127,0.0104,0.0079,0.0055,0.0004,-0.0028,-0.0044,-0.0071,-0.0087,-0.0111,-0.0133,-0.0156,-0.0138,-0.0181,-0.0186,-0.0135,-0.0136,-0.0137,-0.0138,0,0,0.0169,0.0182,0.0185,0.0202,0.0189,0.0191,0.0193,0.0183,0.0187,0.0142,0.014,0.0089,0.0055,0.0033,-0.0008,-0.0044,-0.0076,-0.0084,-0.0088,-0.0117,-0.0167,-0.017,-0.0177,-0.0104,-0.0104,-0.0105,-0.0194,0,0.0202,0.024,0.0234,0.0271,0.029,0.0265,0.0273,0.0257,0.0232,0.0218,0.0158,0.0139,0.0086,0.0074,0.0029,-0.005,-0.0089,-0.005,-0.0184,-0.0188,-0.0189,-0.0183,-0.0107,-0.0199,-0.02,-0.0201,-0.0202,0,0.0235,0.0259,0.0304,0.0335,0.0341,0.0355,0.0365,0.0364,0.033,0.031,0.0272,0.0224,0.0169,0.0122,-0.0006,0.002,-0.0064,-0.0131,-0.0136,-0.0165,-0.0201,-0.0223,-0.0213,-0.0212,-0.0212,-0.0211,-0.021,0,0.0269,0.0308,0.0351,0.036,0.0384,0.04,0.0408,0.0392,0.0406,0.0368,0.0372,0.0288,0.0254,0.0137,0.0,-0.0004,-0.0146,-0.0172,-0.0256,-0.0258,-0.0257,-0.0257,-0.0262,-0.0262,-0.0262,-0.0262,-0.0261,0,0.0304,0.0338,0.0373,0.0396,0.045,0.0445,0.049,0.0479,0.048,0.0503,0.0423,0.0417,0.0256,0.0158,0.0022,-0.0132,-0.0134,-0.0247,-0.0279,-0.0228,-0.0224,-0.0262,-0.0261,-0.0265,-0.0264,-0.0263,-0.0263,0,0.0327,0.035,0.0404,0.0448,0.0468,0.0502,0.0557,0.0586,0.0575,0.0601,0.0598,0.0513,0.0382,0.0216,0.0023,-0.0092,-0.0246,-0.0301,-0.0227,-0.0254,-0.0337,-0.0331,-0.0401,-0.0402,-0.0403,-0.0403,-0.0404,0,0.0339,0.037,0.0445,0.0485,0.0508,0.0564,0.0608,0.0628,0.0664,0.0659,0.0675,0.0572,0.0492,0.0229,0.0036,-0.0221,-0.0261,-0.0345,-0.0348,-0.0326,-0.0351,-0.0344,-0.0338,-0.0405,-0.0405,-0.0405,-0.0406,0,0.0361,0.0388,0.0434,0.0521,0.0581,0.0655,0.0716,0.0756,0.0776,0.0779,0.0748,0.0612,0.0463,0.0244,0.0046,-0.0143,-0.0293,-0.0353,-0.0353,-0.0357,-0.0332,-0.0354,-0.0347,-0.0408,-0.0408,-0.0407,-0.0407,0,0.0372,0.0407,0.047,0.0547,0.0631,0.071,0.0747,0.0793,0.083,0.0828,0.0813,0.0649,0.0556,0.0284,0.0098,-0.0084,-0.0137,-0.0205,-0.0214,-0.0214,-0.0139,-0.0078,-0.01,0,0,0,0,0,0.0375,0.0416,0.049,0.0576,0.0665,0.0716,0.0804,0.0835,0.0868,0.0862,0.0843,0.0706,0.0438,0.0321,0.0141,0.0062,-0.0186,-0.016,-0.0272,-0.0421,-0.0418,-0.0363,0,0,0,0,0,0,0.0374,0.0438,0.0483,0.0589,0.0653,0.0752,0.0812,0.0839,0.0838,0.0844,0.0713,0.0649,0.0395,0.0545,0.0134,0.0078,-0.0022,-0.0281,-0.0286,-0.0423,-0.042,-0.0418,-0.036,0,0,0,0,0]}]]